User: anonymous   Login
Location: Salamanca
(40.9670°N, 5.6500°W)
Time: 18:07:06
(UTC+01:00)
Language:

Cosmos 1633 Rocket - Orbit

View from above orbital plane
View from above orbital plane
View from above satellite
View from above satellite

Ground track
Ground track

The orbit data is extracted from the following two-line orbital elements,

1 15593U 85020B   14355.57036925  .00000771  00000-0  89956-4 0  8482
2 15593 082.5373 032.7392 0012813 154.7009 317.2559 14.83881630609605
Epoch (UTC): 21 December 2014 13:41:19
Eccentricity: 0.0012813
inclination: 82.5373°
perigee height: 608 km
apogee height: 626 km
right ascension of ascending node: 32.7392°
argument of perigee: 154.7009°
revolutions per day: 14.83881630
mean anomaly at epoch: 317.2559°
orbit number at epoch: 60960

The dashed part of the orbit path shows where the satellite is in the earth's shadow,  

DLR